Regional Weather Roundup
Issued by NWS

Home | Current Version | Previous Version | Text Only | Print | Product List | Glossary Off
Versions: 1 2 3 4 5 6 7 8 9 10 11 12 13 14 15 16 17 18 19 20 21 22 23 24 25 26 27 28 29 30 31 32 33 34 35 36 37 38 39 40 41 42 43 44 45 46 47 48 49 50

000
ASUS43 KIND 270200
RWRIN

WEATHER ROUNDUP FOR INDIANA
NATIONAL WEATHER SERVICE INDIANAPOLIS IN
1000 PM EDT SAT MAY 26 2018

NOTE: "FAIR" INDICATES FEW OR NO CLOUDS BELOW 12,000 FEET WITH NO
SIGNIFICANT WEATHER AND/OR OBSTRUCTIONS TO VISIBILITY.

* - STATION DOES NOT REPORT WEATHER SUCH AS PRECIPITATION OR FOG.

+ - STATION NOT QUALITY CONTROLLED BY THE NATIONAL WEATHER SERVICE.
    USE DATA WITH CAUTION...ESPECIALLY DEWPOINT AND RELATIVE
    HUMIDITY OBSERVATIONS.

INZ001>003-010>013-019-020-270300-
NORTHWEST INDIANA

CITY           SKY/WX    TMP DP  RH WIND       PRES   REMARKS
GARY /AIRPORT/ PTCLDY    73  61  64 CALM      29.77S
KNOX *+        FAIR      75  63  64 E3        29.79R
MICHIGAN CITY+ FAIR      70  61  73 CALM      29.79S
MONTICELLO +   FAIR      75  66  72 CALM      29.78R

$$

LMZ046-743>745-270300-
SOUTHERN LAKE MICHIGAN

STATION/POSITION TIME  TEMP    WIND        PRES    WAVE
                       AIR SEA DIR/SP/G            HT
                 (UTC) (F)     (DEG/KT/KT) (MB)    (FT)
BURNS HARBOR     0140   68      CALM  /  7 1008.8R
MICHIGAN CITY    0130   79      70/  4/  4   N/A
5NW MICH CITY    0140   71 67   90/  6/  6   N/A     0

$$

INZ004-005-014>016-021>024-270300-
NORTH CENTRAL INDIANA

CITY           SKY/WX    TMP DP  RH WIND       PRES   REMARKS
GOSHEN         FAIR      74  60  61 CALM      29.81R
PERU/GRISSOM   FAIR      77  68  73 E3        29.81R
SOUTH BEND     FAIR      71  62  73 CALM      29.81R
WARSAW +       FAIR      72  59  64 CALM      29.81R

$$

INZ006>009-017-018-025>027-270300-
NORTHEAST INDIANA

CITY           SKY/WX    TMP DP  RH WIND       PRES   REMARKS
ANGOLA *+      MOCLDY    73  68  83 CALM      29.81R
AUBURN +       FAIR      72  68  88 CALM      29.83R
FORT WAYNE     FAIR      76  66  71 SE3       29.81R THUNDER
KENDALLVILLE + FAIR      76  61  60 CALM      29.82R

$$

INZ028-029-035-036-043>045-051>053-270300-
WEST CENTRAL INDIANA

CITY           SKY/WX    TMP DP  RH WIND       PRES   REMARKS
CRAWFORDSVL +  FAIR      73  66  77 CALM      29.81R
GREENCASTLE +  FAIR      73  63  68 CALM      29.83R
LAFAYETTE      FAIR      75  69  81 CALM      29.78R
TERRE HAUTE    FAIR      78  66  66 S3        29.80R

$$

INZ030>032-037>040-046>048-054>057-064-065-270300-
CENTRAL INDIANA

CITY           SKY/WX    TMP DP  RH WIND       PRES   REMARKS
ANDERSON       FAIR      77  64  62 CALM      29.83R
COLUMBUS       CLEAR     77  64  65 S5        29.82R
FRANKFORT +    FAIR      79  67  66 CALM      29.83R
GREENWOOD *+   CLOUDY    73  71  91 S5        29.83R
INDIANAPOLIS   MOCLDY    75  70  84 S5        29.81R
-EAGLE CREEK   FAIR      74  66  76 CALM      29.81R
KOKOMO +       FAIR      79  67  66 CALM      29.82R
MT COMFORT *+  MOCLDY    70  70 100 SE3       29.83R
SHELBYVILLE    FAIR      76  68  76 S5        29.83R

$$

INZ033-034-041-042-049-050-058-059-270300-
EAST CENTRAL INDIANA

CITY           SKY/WX    TMP DP  RH WIND       PRES   REMARKS
MUNCIE         FAIR      79  65  62 CALM      29.82R
RICHMOND +     FAIR      72  68  88 E5        29.85R

$$

INZ060-061-067>069-081>083-085>088-270300-
SOUTHWEST INDIANA

CITY           SKY/WX    TMP DP  RH WIND       PRES   REMARKS
EVANSVILLE     FAIR      78  69  73 SW5       29.83R
HUNTINGBURG +  FAIR      79  69  71 S6        29.84R

$$

INZ062-063-066-070>080-084-089>092-270300-
SOUTH CENTRAL AND SOUTHEAST INDIANA

CITY           SKY/WX    TMP DP  RH WIND       PRES   REMARKS
BLOOMINGTON    FAIR      74  69  85 CALM      29.83R
FRENCH LICK *+ MOCLDY    77  59  53 CALM      29.85R
SEYMOUR +      FAIR      77  66  69 S3        29.83R

$$





USA.gov is the U.S. government's official web portal to all federal, state and local government web resources and services.